This is the latest recevied weather packets stored in our database for station/object IU0SZS-10. If no packets are shown the sender has not sent any weather packets the latest 1 day(s).
| Time | Temp. | Humidity | Pressure | Rain* | Wind** | Luminosity | Snow |
|---|---|---|---|---|---|---|---|
| 1788572067 | 21.11° C | 56% | 921.4 hPa | - | - | - | - |
| 1788571167 | 21.11° C | 55% | 921.3 hPa | - | - | - | - |
| 1788570266 | 21.11° C | 55% | 921.4 hPa | - | - | - | - |
| 1788569366 | 21.11° C | 54% | 921.6 hPa | - | - | - | - |
| 1788568466 | 21.67° C | 53% | 921.5 hPa | - | - | - | - |
| 1788567565 | 21.67° C | 53% | 921.6 hPa | - | - | - | - |
| 1788566665 | 21.67° C | 52% | 921.8 hPa | - | - | - | - |
| 1788565765 | 21.67° C | 51% | 921.8 hPa | - | - | - | - |
| 1788564865 | 22.22° C | 50% | 921.8 hPa | - | - | - | - |
| 1788563965 | 22.22° C | 47% | 921.9 hPa | - | - | - | - |
| 1788563065 | 22.78° C | 46% | 922.1 hPa | - | - | - | - |
| 1788562199 | 22.78° C | 45% | 922 hPa | - | - | - | - |
| 1788562165 | 22.78° C | 45% | 922 hPa | - | - | - | - |
| 1788561264 | 22.78° C | 44% | 922.2 hPa | - | - | - | - |
| 1788560364 | 22.78° C | 41% | 922.2 hPa | - | - | - | - |
| 1788559464 | 23.33° C | 42% | 922 hPa | - | - | - | - |
| 1788558564 | 23.89° C | 36% | 922 hPa | - | - | - | - |
| 1788557664 | 23.89° C | 38% | 922 hPa | - | - | - | - |
| 1788556764 | 24.44° C | 39% | 922 hPa | - | - | - | - |
| 1788555863 | 24.44° C | 39% | 922 hPa | - | - | - | - |
| 1788554963 | 24.44° C | 38% | 921.9 hPa | - | - | - | - |
| 1788554121 | 25° C | 36% | 921.9 hPa | - | - | - | - |
| 1788554063 | 25° C | 36% | 921.9 hPa | - | - | - | - |
| 1788553163 | 25° C | 32% | 922 hPa | - | - | - | - |
| 1788552263 | 25.56° C | 31% | 922 hPa | - | - | - | - |
* Rain since midnight (hover to see other rain measurements)
** Current wind speed in m/s (hover to see current wind gust speed)